{"data":{"norad_id":68751,"intl_designator":"2026-082Z","name":"STARLINK-37277","alt_names":[],"object_type":"PAYLOAD","status":"ACTIVE","operator":null,"country":"US","launch_date":"2026-04-15","launch_site_code":"AFWTR","launch_vehicle":null,"mission":null,"orbit_class":"UNKNOWN","rcs_meters":null,"size_class":null,"mass_kg":null,"dimensions":null,"purposes":["comms"],"wikipedia_slug":null,"has_3d_model":false,"image_url":null,"decayed_at":null,"tle_current":{"epoch":"2026-09-19T10:21:12.080448Z","epoch_age_seconds":132198,"freshness":"FRESH","line1":"1 68751U 26082Z   26262.43138982  .00023520  00000+0  72818-3 0  9991","line2":"2 68751  97.2842 124.6282 0002387 102.6478 257.5031 15.33461679 24143","mean_motion":15.33461679,"eccentricity":0.0002387,"inclination_deg":97.2842,"raan_deg":124.6282,"arg_perigee_deg":102.6478,"mean_anomaly_deg":257.5031,"bstar":0.00072818,"rev_number":2414,"period_min":93.90518326738,"perigee_km":463.85997534633,"apogee_km":467.12712457088,"semimajor_km":6843.6305499586,"source":"CELESTRAK","updated_at":"2026-09-20T09:00:43.995996Z"}}}